Find Starlink 31688

NORAD ID: 59386 Int'l Des: 2024-062 Owner: SPXS Country: US Constellation: starlink operational
LEOCIRCULAR

現在のビュー

3D地球を読み込み中...

About Starlink 31688

Starlink 31688 (NORAD 59386) is a starlink constellation satellite (v2 mini) launched Apr 2, 2024 by SPXS of US. It operates in LEO, CIRCULAR orbit with a mass of 730.00 kg.

次回通過

Passes for default location (London). Set your location on the main map for personalized predictions.

高度履歴

Loading altitude history...

軌道要素

1 59386U 24062N 26262.95715337 .00003033 00000-0 10082-3 0 9996
2 59386 53.1597 71.9732 0000907 132.0798 228.0282 15.34417069139397
Epoch: Sep 19, 2026 • Age: 15 hours

現在のステータス

高度 463.0 km
遠地点 / 近地点 N/A
速度 7.64 km/s
衛星直下点 1.01°N, 41.62°E
打ち上げ日 Apr 2, 2024
運用期間 2.4 years
タイプ internet

技術仕様

分類 Payload
質量 730.00 kg
乾燥質量 700.00 kg
長さ 0.30 m
スパン 29.00 m
形状 ? Box + pan
製造者 SPXS
バスタイプ Starlink V2M
フェーズステータス In Orbit
所有者/国 SPXS/US

Most Searched